Vorticity
7 5 7 8 9 6 7 6 6 5 6 7 7 7 9 5 11 -2 19 32 4 13 16 -9 -7 -1 4 9 13 13 9 0 10 15 -6 -23 3 21 24 3 -5 31 22 26 13
6 5 6 4 7 8 7 6 6 6 6 7 8 8 4 10 9 4 37 29 -5 -30 -2 10 25 9 10 15 7 9 13 -2 -2 -8 -12 -8 6 14 -8 2 20 8 4 -8 -5
6 5 6 6 5 6 5 5 5 7 8 7 9 7 9 10 3 42 -4 14 -17 8 2 13 3 15 10 6 7 9 1 6 16 19 8 5 20 3 12 11 -18 7 25 9 21
5 6 5 5 9 7 7 7 8 8 7 7 9 8 11 11 17 -10 2 -0 14 1 23 -25 17 9 1 8 6 11 12 4 18 16 18 18 -11 12 9 15 4 1 -9 5 5
6 9 7 5 7 8 7 7 8 8 9 10 9 12 10 11 16 13 19 19 10 16 1 11 3 0 8 -8 21 6 21 11 15 11 17 12 20 18 -11 1 13 21 2 6 0
-0 7 9 8 9 10 9 10 12 11 11 13 11 9 16 21 22 7 11 9 7 3 22 10 5 5 14 14 26 13 -8 -5 -2 -9 -7 0 29 17 14 28 -21 10 17 16 -0
5 8 10 10 9 12 14 14 12 12 11 13 16 12 15 13 13 18 1 15 9 6 12 17 6 2 14 17 31 21 16 17 21 32 43 34 11 23 14 10 26 25 -11 0 6
9 7 7 5 11 17 12 13 12 15 16 19 5 21 13 23 6 8 12 5 11 13 13 25 24 9 14 17 16 17 30 34 28 27 -28 18 42 7 6 29 18 18 27 8 20
6 5 6 5 7 14 12 12 16 12 19 7 22 4 16 11 9 7 7 9 11 14 19 20 21 25 17 23 10 9 -5 7 17 4 32 16 -9 1 21 17 16 -3 9 0 6
8 6 7 6 6 8 12 15 10 20 6 13 7 26 16 1 7 3 8 19 11 11 16 16 17 12 10 5 -15 -17 -3 1 -5 1 16 5 13 15 18 15 0 29 17 25 23
13 7 8 9 9 6 15 13 15 19 18 10 17 19 -1 3 2 8 9 6 12 15 13 10 18 11 2 6 7 13 15 13 13 33 34 26 3 9 20 5 9 53 20 21 -3
3 11 10 6 8 12 12 15 14 4 14 24 15 -3 3 -1 3 8 14 19 15 10 7 1 9 8 6 10 15 15 5 -0 10 -7 22 4 11 31 30 21 21 23 13 18 15
6 6 6 12 11 13 12 15 14 9 28 23 -1 9 -4 11 33 3 15 9 7 6 -0 14 7 7 -1 -3 2 6 11 9 15 8 0 7 20 -13 36 25 31 17 26 20 20
4 8 7 4 11 11 12 14 14 16 32 10 -3 6 2 8 -7 8 3 7 8 1 5 15 -4 -3 -0 9 17 13 9 4 -2 12 1 -15 -2 44 1 18 21 26 26 40 5
5 7 9 6 14 13 10 12 14 29 8 -5 -6 -3 7 12 11 9 6 6 5 8 9 2 3 11 12 16 12 -11 16 15 8 8 24 37 9 -37 17 -5 6 -6 18 14 40
4 6 8 9 14 10 13 13 22 28 15 -1 5 -8 7 17 4 8 11 10 9 8 7 21 6 13 -3 1 17 9 16 5 33 28 12 15 9 -15 -12 -0 14 18 5 11 -4
5 5 5 11 9 17 14 14 32 9 -7 6 -10 2 9 13 5 11 3 5 14 17 -2 -0 45 6 20 18 13 -4 19 9 13 10 -3 -3 42 -15 -4 13 16 -1 22 9 17
6 5 -1 11 12 11 18 20 20 -3 -2 12 0 7 24 2 13 -13 7 11 13 18 14 14 17 8 4 -1 -3 15 4 10 8 7 -8 9 23 -9 -8 21 -5 21 14 16 12
6 6 0 10 12 16 17 28 -2 6 7 1 10 29 10 -6 9 18 13 30 17 1 8 7 16 -12 3 3 2 9 4 -0 6 16 10 6 14 -22 34 -3 2 -12 14 20 8
4 5 17 5 10 28 13 9 13 13 7 8 8 12 -10 -4 24 16 21 6 13 6 0 12 13 23 22 12 17 5 -1 12 19 8 14 15 9 -5 -10 1 -7 1 2 29 8
7 9 9 4 1 21 11 10 16 16 15 16 -5 -5 5 10 13 7 9 -13 27 17 4 7 18 -13 -5 10 -1 7 11 14 9 8 7 8 -4 -6 17 -7 12 -6 19 6 13
7 9 17 17 40 -17 9 13 12 7 20 -0 -6 18 30 3 24 17 -6 4 -6 10 5 11 7 3 1 14 15 4 19 -6 12 3 -3 -1 -3 38 34 1 -7 14 22 13 20
6 10 7 1 15 6 7 14 17 25 23 13 -6 -16 9 10 18 25 -4 14 10 9 7 -2 7 12 19 23 22 18 0 -5 -8 22 16 -9 -22 -16 -22 19 8 7 25 21 22
13 13 11 38 -3 9 10 31 9 14 19 14 -1 8 12 2 16 -6 -20 1 5 17 11 13 10 -20 -44 -30 -17 -18 -18 -2 8 5 6 -25 -25 16 21 8 12 13 18 17 20
14 4 13 -16 2 11 11 11 21 16 15 14 13 11 -5 11 7 16 14 8 1 16 11 13 -5 -6 6 8 10 5 4 3 6 14 -5 -21 -12 29 32 27 13 0 1 22 19
3 15 -3 -14 9 10 10 4 24 27 10 7 10 22 20 8 5 -4 4 10 6 6 19 12 1 11 6 17 18 1 2 14 4 12 9 23 18 26 -4 3 6 11 3 1 10
3 -17 2 -1 4 16 16 9 2 9 22 7 -0 -10 9 11 -4 11 13 19 5 13 10 18 5 15 11 13 26 38 28 53 28 31 6 -0 -1 7 8 7 7 8 10 6 1
Height
3129 3124 3119 3115 3110 3105 3101 3097 3093 3089 3086 3082 3078 3076 3073 3070 3068 3066 3066 3064 3063 3062 3063 3063 3061 3059 3060 3062 3061 3060 3053 3040 3047 3051 3050 3056 3057 3059 3060 3058 3062 3063 3064 3069 3071
3124 3119 3115 3110 3106 3101 3097 3092 3088 3085 3081 3077 3073 3070 3066 3064 3062 3061 3060 3057 3056 3057 3060 3059 3057 3054 3054 3056 3054 3053 3043 3039 3047 3048 3045 3046 3048 3051 3052 3049 3050 3055 3058 3061 3063
3121 3116 3111 3107 3102 3097 3092 3088 3085 3081 3076 3072 3068 3064 3061 3059 3056 3054 3052 3051 3051 3051 3051 3051 3051 3049 3047 3047 3047 3043 3033 3039 3037 3038 3039 3037 3038 3041 3038 3034 3043 3047 3050 3053 3056
3117 3112 3108 3103 3098 3093 3088 3084 3080 3075 3070 3065 3061 3058 3056 3054 3057 3048 3047 3046 3046 3045 3044 3042 3044 3042 3039 3039 3036 3030 3030 3029 3028 3027 3027 3027 3030 3027 3027 3024 3035 3041 3042 3044 3047
3113 3108 3104 3099 3093 3089 3083 3078 3074 3069 3064 3059 3054 3052 3050 3047 3047 3043 3041 3042 3040 3042 3040 3039 3038 3036 3033 3030 3028 3024 3022 3019 3018 3015 3014 3014 3011 3013 3009 3019 3024 3028 3031 3033 3038
3110 3104 3099 3094 3089 3083 3077 3072 3068 3063 3058 3053 3049 3046 3043 3043 3041 3038 3037 3036 3035 3035 3034 3031 3030 3028 3025 3022 3021 3017 3014 3012 3009 3007 3006 3003 3001 3005 3000 3013 3014 3017 3021 3025 3029
3106 3101 3095 3090 3084 3077 3071 3066 3062 3057 3053 3047 3044 3040 3039 3039 3035 3034 3032 3031 3029 3029 3027 3023 3023 3021 3017 3016 3012 3009 3006 3005 3003 3002 2994 2996 2991 2990 2999 3000 3002 3009 3012 3015 3020
3103 3097 3091 3086 3079 3072 3066 3061 3056 3051 3046 3041 3037 3033 3031 3032 3031 3030 3027 3026 3023 3021 3020 3017 3016 3016 3014 3011 3008 3005 3003 2998 2996 2996 2992 2989 2982 2986 2988 2989 2991 2993 2999 3004 3010
3100 3094 3087 3081 3074 3067 3062 3056 3050 3045 3040 3038 3035 3032 3030 3029 3029 3029 3027 3024 3020 3016 3014 3014 3012 3011 3009 3007 3004 3002 2999 2996 2993 2992 2988 2986 2979 2980 2982 2981 2980 2985 2989 2993 2998
3096 3090 3083 3076 3070 3063 3057 3051 3046 3041 3038 3034 3031 3032 3031 3030 3028 3025 3023 3022 3020 3016 3014 3011 3009 3007 3006 3006 3004 3001 2998 2993 2992 2991 2985 2981 2976 2976 2977 2975 2974 2975 2979 2984 2991
3093 3087 3080 3073 3065 3059 3053 3048 3045 3039 3033 3031 3030 3029 3029 3027 3025 3023 3020 3017 3015 3014 3012 3010 3009 3007 3005 3003 3001 2998 2996 2992 2989 2987 2982 2979 2974 2972 2972 2970 2972 2971 2972 2975 2982
3089 3083 3076 3069 3062 3054 3048 3042 3038 3036 3029 3027 3027 3027 3025 3024 3021 3019 3017 3016 3013 3011 3009 3009 3007 3006 3005 3003 2999 2996 2994 2989 2985 2985 2982 2975 2967 2965 2964 2965 2965 2966 2967 2968 2975
3085 3080 3073 3066 3058 3052 3046 3040 3034 3029 3027 3024 3024 3024 3023 3022 3018 3016 3015 3013 3012 3010 3008 3007 3007 3004 3003 3002 3000 2995 2993 2988 2987 2982 2980 2974 2963 2961 2962 2962 2961 2962 2962 2963 2966
3081 3076 3069 3063 3058 3049 3043 3036 3031 3026 3022 3025 3024 3022 3022 3019 3017 3014 3012 3013 3010 3008 3006 3004 3003 3002 3001 2999 2998 2992 2991 2988 2985 2984 2979 2977 2971 2961 2961 2961 2961 2959 2958 2956 2955
3078 3071 3065 3058 3052 3046 3040 3033 3029 3025 3026 3025 3022 3021 3019 3020 3017 3013 3011 3008 3007 3006 3006 3003 2999 2998 2996 2996 2994 2992 2989 2986 2982 2981 2979 2972 2975 2964 2965 2963 2960 2958 2956 2956 2955
3074 3067 3062 3056 3049 3043 3036 3031 3028 3027 3023 3022 3021 3019 3018 3015 3014 3012 3010 3007 3004 3002 3001 2998 2997 2995 2992 2992 2991 2989 2987 2984 2979 2979 2978 2974 2975 2964 2963 2961 2957 2956 2956 2954 2953
3070 3064 3058 3052 3046 3039 3033 3029 3027 3022 3024 3021 3018 3016 3014 3012 3011 3008 3006 3004 3003 3001 2997 2995 2993 2991 2990 2990 2989 2988 2986 2984 2983 2980 2978 2974 2973 2968 2964 2960 2958 2955 2952 2950 2949
3064 3060 3054 3048 3042 3036 3030 3028 3024 3021 3019 3017 3015 3013 3010 3009 3007 3005 3002 2999 2997 2997 2995 2992 2990 2991 2990 2989 2988 2986 2986 2986 2986 2981 2976 2976 2969 2966 2963 2961 2959 2957 2953 2949 2946
3060 3055 3050 3044 3039 3033 3029 3026 3023 3018 3015 3013 3011 3008 3008 3007 3006 3001 2998 2995 2994 2995 2996 2992 2989 2988 2988 2987 2987 2985 2984 2984 2982 2977 2978 2973 2965 2964 2960 2957 2955 2951 2950 2948 2945
3055 3050 3045 3039 3034 3029 3026 3023 3018 3015 3012 3009 3008 3007 3004 3003 3003 3000 2997 2996 2994 2994 2993 2990 2988 2985 2985 2984 2984 2983 2983 2981 2980 2981 2977 2970 2963 2959 2957 2954 2951 2947 2945 2944 2941
3049 3044 3039 3034 3030 3025 3022 3018 3014 3012 3010 3009 3005 3004 3002 3001 3000 2999 2996 2994 2992 2990 2989 2988 2987 2984 2983 2982 2980 2980 2978 2978 2978 2978 2977 2971 2960 2956 2954 2952 2948 2945 2942 2939 2937
3042 3040 3035 3030 3028 3022 3019 3015 3012 3008 3006 3005 3002 3000 2998 2997 2995 2994 2992 2991 2990 2989 2987 2985 2983 2979 2979 2977 2976 2976 2976 2976 2976 2977 2975 2972 2957 2952 2949 2948 2945 2940 2935 2934 2934
3033 3030 3028 3025 3021 3017 3014 3010 3006 3003 3001 2999 2998 2997 2996 2995 2995 2988 2988 2988 2987 2986 2984 2982 2979 2977 2974 2975 2973 2972 2973 2973 2973 2972 2967 2971 2952 2946 2946 2943 2941 2936 2930 2927 2926
3028 3024 3019 3016 3014 3010 3007 3004 3002 2998 2995 2995 2993 2992 2991 2990 2990 2984 2983 2983 2981 2980 2980 2978 2974 2973 2970 2970 2971 2970 2969 2970 2970 2967 2962 2954 2944 2936 2938 2936 2935 2933 2927 2923 2920
3023 3018 3017 3012 3008 3004 3000 2998 2995 2992 2990 2988 2986 2987 2987 2984 2981 2979 2978 2977 2978 2976 2973 2972 2967 2965 2963 2963 2963 2962 2961 2962 2960 2955 2958 2943 2942 2936 2933 2930 2930 2928 2924 2920 2915
3018 3014 3008 3006 3002 2997 2994 2989 2988 2987 2985 2982 2981 2982 2980 2977 2977 2974 2973 2970 2969 2968 2967 2964 2960 2959 2956 2956 2956 2954 2951 2950 2947 2945 2945 2942 2935 2933 2931 2928 2926 2923 2919 2916 2912
3011 3007 3001 2997 2994 2989 2987 2985 2981 2980 2979 2977 2975 2974 2973 2972 2970 2968 2965 2963 2960 2959 2959 2957 2955 2954 2949 2950 2951 2948 2939 2940 2938 2936 2937 2935 2933 2930 2928 2926 2923 2921 2918 2914 2910